Wind_Speed
1 0 0 0 0 1 1 1 1 1 1 1 2 2 2 2 3 3 3 4 4 4 3 4 4 4 5 5 5 5 6 6 6 6 6 6 7 7 7 7 7 7 7 7 8 8 9 9 9
1 0 0 1 1 0 1 1 2 2 1 1 2 2 2 3 3 3 3 4 4 4 4 5 5 5 6 6 6 6 7 7 7 7 6 7 7 7 8 8 8 8 9 8 8 8 9 9 10
1 1 1 1 1 1 0 1 2 2 1 1 2 2 2 3 3 3 3 4 4 4 5 6 6 6 6 7 7 7 7 7 7 7 7 8 7 7 8 8 8 9 10 9 9 9 9 10 10
2 2 2 1 0 0 1 2 2 2 2 2 2 2 2 2 3 4 4 4 5 5 6 6 6 6 6 7 7 7 7 7 7 8 8 8 8 8 8 8 8 9 10 10 10 9 10 10 11
2 2 2 1 0 0 1 1 2 2 2 2 2 2 2 3 3 4 5 5 5 5 6 6 6 6 7 7 7 7 8 8 8 8 8 8 8 8 8 9 8 8 9 10 10 10 10 11 11
2 2 2 1 1 1 1 1 2 2 3 3 2 2 3 3 4 4 5 5 6 6 6 7 6 6 6 6 7 7 8 8 8 8 8 8 8 8 7 8 8 8 8 9 10 11 10 11 11
2 2 1 1 1 1 1 2 2 2 3 4 3 3 4 4 4 5 5 5 6 6 7 7 7 7 6 7 7 7 8 8 8 8 8 8 8 8 8 8 8 9 9 9 9 10 10 11 11
2 2 2 2 2 2 2 3 4 4 4 4 4 4 4 5 6 6 6 6 6 6 7 7 7 7 7 7 7 7 7 8 8 8 8 9 8 8 8 8 8 9 9 9 9 10 10 10 11
3 3 3 2 2 2 3 3 4 5 5 5 5 5 6 6 7 7 7 6 6 6 7 7 7 7 7 7 7 7 7 8 8 8 8 9 9 9 9 9 9 9 9 9 9 9 9 9 10
4 4 3 3 3 3 3 3 5 6 5 6 6 6 6 6 7 7 7 7 7 7 7 7 7 7 7 7 8 8 7 7 7 8 8 9 9 9 9 9 9 9 9 9 9 9 9 9 10
4 4 4 4 3 3 3 4 5 5 5 6 6 6 6 7 7 7 7 7 7 7 7 7 7 7 7 7 8 8 7 7 7 7 8 8 9 9 9 9 9 9 9 9 8 8 9 10 11
5 4 4 4 3 3 3 4 4 4 5 6 7 7 8 8 8 8 8 8 7 7 7 7 7 7 7 7 8 7 8 7 7 8 8 9 9 8 8 8 9 9 9 9 8 8 9 10 11
5 5 5 4 3 4 4 4 4 5 5 6 7 7 8 8 8 8 8 8 8 7 7 7 7 7 7 7 7 7 8 7 7 8 8 8 8 8 8 8 8 8 8 8 8 8 9 10 10
5 5 5 5 4 4 5 5 5 5 6 7 7 7 7 8 8 8 8 8 8 7 6 6 7 7 7 7 7 7 8 8 8 8 8 8 8 8 8 8 7 7 7 7 7 8 9 11 11
6 6 6 6 6 5 6 6 6 6 7 7 7 7 7 8 8 8 8 8 8 7 6 6 7 7 7 7 7 7 7 8 8 8 8 7 7 8 8 7 7 6 6 7 8 9 10 10 10
6 6 6 6 6 6 6 6 6 6 6 7 7 8 8 9 9 9 8 8 8 7 7 6 7 7 7 7 7 7 7 7 8 8 7 7 7 7 7 7 6 6 7 7 7 8 8 9 9
7 6 6 6 6 5 5 5 5 6 6 7 7 8 8 8 8 8 8 8 7 8 7 7 7 7 7 7 8 8 8 8 7 7 6 6 6 6 6 6 6 6 6 7 7 7 7 8 8
7 7 6 6 6 5 4 4 5 6 6 7 7 8 8 8 8 8 8 8 8 7 7 7 6 7 7 7 8 8 8 8 7 6 6 6 6 6 6 6 6 6 6 6 6 6 7 7 8
8 7 6 6 6 5 5 5 5 5 6 6 7 7 8 7 7 8 8 8 7 7 6 7 7 7 7 7 8 8 8 7 6 6 6 6 6 6 6 6 5 5 5 5 6 7 7 7 7
8 7 7 6 5 5 5 5 5 5 6 6 7 7 7 7 7 8 8 7 7 6 6 7 7 7 7 7 7 7 7 6 6 6 6 6 5 5 6 6 5 5 5 6 6 6 7 7 7
9 9 8 7 6 7 7 6 5 5 6 6 6 7 7 7 7 8 7 7 6 6 6 7 7 7 7 7 7 7 6 6 5 5 5 5 5 5 6 5 5 5 5 5 5 6 7 7 7
11 10 10 9 8 8 8 7 6 6 6 6 6 7 7 7 7 7 7 7 7 7 7 7 7 7 7 7 7 6 6 6 5 5 4 4 5 5 5 5 5 5 5 5 5 5 6 7 6
12 12 11 11 11 10 8 8 6 7 7 7 7 7 7 7 7 7 7 7 7 7 7 7 7 7 6 7 7 6 5 5 5 5 4 4 4 5 5 5 5 5 5 5 5 5 6 6 6
13 13 13 13 12 12 10 9 7 7 7 7 7 7 7 7 6 7 7 8 7 7 7 7 7 6 6 7 7 6 6 5 5 5 4 5 5 5 5 5 5 5 5 6 6 6 7 7 7
14 14 14 14 13 12 11 10 9 8 7 7 7 7 7 7 7 7 7 8 8 7 7 7 7 7 7 7 7 6 6 5 5 5 5 5 5 6 6 6 6 6 6 6 6 6 6 7 6
14 15 15 14 14 13 12 12 10 9 8 8 8 8 8 8 8 8 8 8 8 7 8 7 7 7 7 7 7 7 7 6 6 6 6 6 6 7 7 7 6 6 6 6 6 7 6 6 6
15 16 16 15 15 14 14 13 11 10 9 8 9 9 9 9 9 9 9 8 9 8 8 8 8 8 8 8 8 8 7 7 7 7 6 6 7 7 7 6 6 6 6 6 6 6 6 5 5
16 15 16 17 16 15 15 15 13 12 10 9 9 9 9 10 10 9 9 9 9 9 9 9 8 8 8 8 8 7 7 7 7 7 7 7 7 7 7 7 6 6 6 6 6 7 6 6 5
18 17 17 18 18 17 16 14 13 12 11 11 10 10 10 10 10 10 10 10 10 10 10 9 9 8 8 9 8 8 7 7 7 7 8 8 8 8 8 7 7 8 8 8 7 7 7 7 6
19 19 19 19 19 18 17 16 15 14 13 12 12 12 12 11 11 11 11 11 11 11 10 10 10 9 10 10 9 8 8 8 9 9 9 9 9 8 8 8 8 8 8 7 7 7 7 7 7
Wind_Direction
209 99 95 85 241 237 237 254 238 110 70 62 52 39 28 11 360 337 320 304 303 300 291 291 296 299 299 300 301 299 289 291 289 277 267 265 263 263 264 260 259 261 261 257 254 253 249 245 243
229 223 252 261 290 312 321 54 75 83 69 39 43 25 14 3 348 347 336 315 303 305 299 301 302 299 297 298 300 298 285 282 284 281 275 272 271 268 266 262 257 259 261 259 260 256 249 245 242
275 253 247 250 313 329 24 72 69 69 54 32 32 25 10 354 346 342 336 330 324 317 312 311 306 303 300 297 297 294 287 280 278 277 274 269 270 268 262 263 262 259 259 257 258 256 248 243 240
282 269 257 264 280 265 70 57 52 47 35 24 8 7 5 344 346 340 337 336 331 324 321 315 306 307 304 299 297 291 286 281 277 276 274 267 269 272 268 264 266 262 256 255 253 253 246 241 237
281 266 256 245 192 131 98 61 24 25 12 4 358 354 349 337 333 334 335 334 329 323 321 319 306 304 306 303 299 292 287 280 277 275 273 269 268 268 267 264 263 259 254 256 255 252 246 240 239
265 261 248 233 207 134 76 11 7 354 335 342 346 342 326 322 322 321 323 322 320 318 322 324 316 311 305 304 300 295 291 286 282 276 273 270 269 271 267 264 266 262 262 262 257 250 243 237 238
240 262 264 267 281 301 334 346 347 329 324 330 334 329 324 319 317 316 317 316 313 313 315 318 312 309 308 302 298 295 293 289 284 276 272 271 270 270 268 273 274 267 262 262 259 251 246 244 244
246 253 271 285 294 296 321 336 342 333 328 325 326 327 326 321 319 319 316 314 312 311 310 310 310 307 306 304 299 296 296 290 285 278 271 268 271 272 271 273 275 271 266 263 259 253 248 247 246
242 249 267 280 289 299 319 329 329 333 341 332 323 319 318 317 318 318 315 314 312 309 308 307 307 306 304 300 299 299 299 295 286 279 274 271 270 273 274 273 273 273 270 265 259 251 248 249 249
246 255 262 270 285 311 321 330 329 332 336 331 322 317 319 319 317 317 316 314 309 307 307 306 304 306 306 302 300 300 298 295 290 283 279 276 271 274 276 276 274 271 267 263 259 252 255 257 256
259 255 255 262 281 304 315 320 326 330 326 322 325 324 318 318 320 319 319 318 313 308 304 303 302 305 307 307 305 302 298 295 290 286 284 280 277 274 275 277 270 267 263 261 262 261 261 261 259
265 264 263 271 281 293 310 320 326 328 327 323 321 325 328 323 317 318 318 315 310 306 303 301 298 300 303 304 303 303 299 293 288 285 283 282 283 280 276 278 270 267 265 264 267 265 263 261 259
269 265 264 267 279 295 306 314 319 320 323 326 322 325 326 326 325 320 315 314 311 308 305 303 303 302 304 306 304 303 299 297 294 288 285 286 283 283 281 278 276 268 267 266 265 263 260 259 259
259 256 257 260 274 286 296 305 309 315 319 324 321 322 325 324 324 320 317 316 312 311 308 306 306 305 306 309 307 305 298 296 298 294 293 292 285 285 281 279 277 269 262 263 265 264 263 263 265
257 259 261 263 268 275 287 294 303 312 316 323 325 321 322 324 325 322 318 314 313 312 309 305 306 306 303 305 307 304 297 295 296 294 291 292 290 286 281 282 278 272 265 263 266 266 267 266 266
259 262 261 264 266 273 282 293 301 309 317 318 319 318 319 319 321 321 319 315 312 309 304 302 305 306 305 305 306 305 301 297 295 296 293 291 288 288 284 281 277 272 268 268 268 269 267 267 265
263 266 268 270 276 274 278 291 298 304 311 312 313 316 318 319 320 323 321 319 314 309 303 304 306 304 306 306 308 308 303 299 295 293 291 294 294 288 284 282 279 275 270 269 269 269 270 268 265
261 264 269 272 276 273 280 292 296 302 306 310 309 313 316 316 318 323 325 322 317 311 310 312 315 312 310 308 309 308 305 301 296 291 290 292 294 292 289 279 277 277 272 271 272 274 274 271 270
255 265 265 273 276 273 273 284 293 298 303 306 307 309 312 314 313 316 320 323 321 317 315 314 313 315 316 311 310 310 308 304 296 290 288 291 290 290 291 283 281 282 277 273 274 276 276 277 275
260 263 265 268 269 274 283 290 291 297 301 307 307 304 304 308 312 313 315 320 321 318 317 315 316 316 314 313 311 310 307 306 302 296 292 293 291 288 290 290 287 284 277 274 276 277 283 283 282
255 256 259 265 263 269 279 289 295 297 301 308 312 311 308 305 309 313 314 315 315 316 315 317 318 317 310 308 310 307 302 302 300 298 298 300 299 295 289 290 291 288 283 279 278 279 281 285 285
250 253 258 264 269 272 277 287 295 298 302 308 311 311 307 304 307 311 311 312 315 320 317 313 314 316 312 306 304 301 300 301 300 297 298 305 307 303 296 287 285 288 287 288 287 282 283 285 289
252 253 257 259 265 266 269 277 287 293 298 304 309 310 309 308 306 309 311 311 313 316 318 316 311 308 307 304 300 294 293 296 297 296 295 297 304 307 302 295 293 290 287 292 294 284 285 289 293
251 253 255 259 261 262 263 268 281 290 298 302 306 307 308 311 305 304 307 309 308 310 310 313 314 307 301 301 298 292 290 291 297 294 294 296 300 306 307 297 291 289 285 289 294 290 288 290 291
250 253 255 257 256 258 264 265 273 278 289 296 300 303 307 304 299 300 306 310 308 304 306 309 312 307 296 296 295 293 292 288 291 293 286 291 296 303 309 302 291 284 284 288 293 295 296 293 292
250 253 253 258 261 259 261 265 270 274 286 288 290 295 299 298 296 298 300 302 302 301 306 306 308 310 302 293 291 288 288 287 286 290 286 287 289 296 308 304 292 282 280 285 291 293 295 298 301
247 250 253 254 256 259 258 264 269 274 280 286 287 289 292 296 294 296 297 299 299 300 302 301 300 301 301 297 289 283 282 283 285 288 287 284 287 292 302 304 295 292 285 286 290 294 294 295 300
249 250 249 249 253 259 261 262 269 272 270 275 280 285 291 295 294 292 293 295 297 298 297 295 295 294 293 293 289 284 280 277 279 280 285 284 287 292 295 300 299 296 296 290 289 292 295 294 294
249 248 250 250 251 258 266 264 269 268 268 270 270 277 285 290 289 288 286 291 294 293 291 290 290 293 292 291 287 281 278 272 271 274 279 283 285 290 292 291 296 295 294 292 286 287 291 293 292
247 247 249 252 254 257 262 262 264 263 263 265 268 274 280 284 284 285 284 287 289 289 285 282 284 286 288 288 284 279 275 275 274 273 277 279 280 284 287 288 288 291 291 289 287 286 288 287 288
Height
5885 5885 5885 5886 5886 5884 5883 5883 5882 5882 5882 5882 5882 5882 5881 5882 5882 5883 5880 5878 5878 5877 5877 5877 5876 5876 5876 5875 5875 5875 5874 5874 5874 5873 5873 5873 5873 5873 5873 5873 5873 5872 5872 5872 5872 5871 5871 5872 5872
5885 5885 5886 5886 5884 5883 5883 5882 5882 5882 5882 5881 5881 5881 5881 5881 5880 5880 5879 5878 5877 5876 5876 5876 5875 5875 5875 5874 5874 5873 5873 5873 5872 5872 5872 5872 5872 5872 5872 5871 5871 5871 5871 5871 5870 5869 5869 5870 5871
5884 5885 5886 5885 5883 5883 5883 5882 5882 5882 5881 5881 5881 5881 5881 5881 5880 5879 5878 5877 5876 5876 5875 5875 5874 5874 5873 5873 5873 5872 5872 5872 5871 5871 5870 5870 5870 5870 5870 5870 5870 5870 5869 5869 5869 5868 5867 5868 5869
5885 5885 5885 5884 5883 5883 5882 5882 5882 5882 5881 5881 5881 5881 5880 5880 5879 5878 5877 5877 5876 5875 5874 5874 5873 5873 5872 5872 5871 5871 5871 5870 5870 5870 5869 5869 5869 5869 5868 5868 5868 5868 5867 5867 5867 5866 5866 5867 5868
5884 5885 5885 5883 5883 5883 5882 5882 5882 5881 5881 5881 5881 5880 5879 5879 5878 5877 5876 5876 5875 5874 5873 5872 5872 5871 5871 5870 5870 5869 5869 5869 5868 5868 5868 5868 5867 5867 5867 5866 5866 5866 5866 5865 5865 5865 5865 5866 5866
5885 5884 5884 5883 5883 5882 5882 5882 5882 5881 5880 5880 5880 5879 5878 5878 5877 5876 5876 5875 5874 5873 5872 5871 5871 5870 5869 5869 5868 5868 5867 5867 5867 5866 5866 5866 5865 5865 5865 5864 5864 5864 5864 5864 5864 5864 5864 5864 5865
5885 5884 5883 5883 5883 5882 5882 5881 5881 5881 5880 5879 5879 5878 5877 5877 5876 5875 5875 5874 5873 5872 5871 5870 5870 5869 5868 5867 5867 5866 5866 5865 5865 5864 5864 5864 5863 5863 5863 5863 5862 5862 5862 5862 5862 5862 5862 5863 5863
5883 5884 5883 5882 5882 5882 5881 5880 5880 5880 5879 5879 5878 5877 5876 5876 5874 5874 5873 5872 5872 5871 5870 5869 5868 5867 5867 5866 5865 5865 5864 5863 5863 5862 5862 5862 5861 5861 5861 5861 5860 5860 5859 5860 5860 5860 5860 5861 5861
5883 5884 5882 5882 5881 5881 5880 5880 5880 5879 5878 5877 5877 5876 5876 5874 5873 5872 5872 5871 5870 5869 5869 5868 5867 5866 5865 5865 5864 5863 5862 5862 5861 5861 5860 5860 5860 5859 5859 5858 5858 5858 5858 5858 5858 5858 5858 5858 5859
5882 5882 5882 5881 5881 5880 5880 5879 5879 5878 5877 5876 5876 5875 5874 5873 5872 5871 5870 5870 5869 5868 5867 5866 5866 5865 5864 5863 5862 5861 5861 5860 5859 5859 5859 5858 5858 5857 5856 5856 5856 5856 5856 5855 5856 5856 5856 5856 5856
5881 5881 5880 5880 5879 5879 5879 5879 5878 5877 5876 5876 5875 5874 5873 5872 5871 5870 5869 5868 5868 5867 5866 5865 5864 5863 5862 5861 5861 5860 5859 5858 5858 5857 5857 5856 5855 5855 5855 5854 5854 5853 5853 5853 5854 5854 5854 5854 5854
5880 5880 5879 5879 5878 5878 5878 5877 5877 5876 5876 5874 5873 5872 5871 5870 5869 5868 5867 5867 5866 5865 5864 5863 5862 5862 5861 5860 5859 5858 5857 5857 5856 5855 5855 5854 5854 5853 5852 5852 5852 5852 5851 5851 5851 5852 5852 5852 5852
5879 5878 5878 5877 5877 5877 5877 5876 5876 5875 5874 5873 5872 5871 5870 5869 5868 5867 5866 5865 5864 5863 5863 5862 5861 5860 5859 5858 5857 5856 5855 5855 5854 5853 5853 5852 5852 5851 5851 5850 5850 5850 5850 5849 5849 5849 5849 5850 5850
5877 5877 5877 5877 5876 5876 5875 5875 5875 5874 5873 5872 5870 5869 5868 5867 5866 5865 5864 5863 5862 5861 5861 5860 5859 5858 5857 5856 5855 5855 5854 5853 5852 5851 5851 5850 5849 5849 5849 5848 5848 5848 5848 5848 5847 5847 5847 5847 5847
5876 5876 5875 5875 5875 5874 5875 5874 5873 5872 5871 5870 5869 5868 5867 5866 5865 5863 5862 5861 5860 5859 5859 5858 5857 5856 5855 5855 5854 5853 5852 5851 5851 5850 5849 5848 5848 5847 5847 5846 5846 5846 5846 5846 5845 5845 5845 5845 5845
5874 5874 5874 5874 5873 5873 5874 5873 5872 5870 5870 5869 5867 5866 5865 5864 5863 5862 5861 5860 5859 5858 5857 5857 5856 5855 5854 5853 5852 5851 5850 5849 5849 5848 5847 5847 5846 5845 5844 5844 5844 5844 5844 5844 5843 5843 5843 5843 5842
5873 5872 5872 5872 5871 5871 5871 5871 5870 5869 5868 5867 5866 5865 5864 5863 5862 5860 5859 5858 5857 5856 5856 5855 5854 5853 5852 5851 5850 5849 5848 5848 5847 5846 5846 5845 5844 5843 5843 5843 5842 5842 5842 5842 5841 5841 5841 5841 5840
5871 5870 5870 5870 5869 5869 5869 5869 5868 5867 5866 5865 5864 5864 5862 5861 5860 5859 5858 5856 5855 5854 5854 5853 5852 5852 5851 5850 5849 5848 5847 5846 5845 5844 5844 5843 5843 5842 5841 5841 5841 5840 5840 5840 5840 5839 5839 5839 5839
5868 5868 5868 5868 5867 5867 5867 5867 5866 5865 5864 5864 5863 5862 5861 5860 5859 5858 5856 5855 5854 5853 5852 5852 5851 5850 5849 5848 5847 5846 5845 5844 5844 5843 5842 5842 5841 5840 5840 5840 5839 5839 5839 5838 5838 5838 5838 5837 5836
5866 5865 5866 5866 5865 5865 5865 5864 5864 5863 5862 5861 5861 5860 5859 5858 5857 5856 5855 5854 5853 5852 5851 5850 5850 5849 5848 5847 5846 5845 5844 5843 5842 5842 5841 5840 5840 5839 5839 5838 5838 5837 5837 5837 5836 5836 5836 5835 5835
5863 5863 5863 5863 5863 5862 5863 5863 5862 5861 5860 5860 5859 5858 5857 5856 5855 5854 5853 5852 5851 5850 5850 5849 5848 5847 5846 5845 5844 5843 5842 5842 5841 5840 5840 5839 5838 5838 5837 5837 5836 5836 5836 5835 5835 5835 5834 5834 5833
5861 5861 5861 5861 5860 5860 5861 5860 5860 5859 5859 5858 5857 5856 5855 5854 5853 5853 5852 5851 5850 5849 5848 5847 5846 5846 5845 5844 5843 5842 5841 5840 5840 5839 5838 5838 5837 5836 5836 5836 5835 5835 5834 5834 5833 5833 5832 5832 5831
5858 5858 5858 5858 5857 5857 5857 5857 5859 5857 5856 5856 5855 5854 5854 5852 5851 5851 5850 5849 5849 5848 5847 5846 5845 5844 5843 5842 5841 5841 5840 5839 5838 5838 5837 5837 5836 5835 5835 5834 5834 5833 5833 5832 5832 5831 5831 5830 5829
5854 5855 5854 5854 5854 5854 5854 5854 5855 5855 5854 5854 5853 5852 5851 5851 5850 5849 5848 5848 5847 5846 5845 5844 5843 5842 5841 5841 5840 5839 5838 5838 5837 5836 5836 5836 5835 5834 5833 5833 5832 5832 5831 5831 5830 5830 5829 5828 5827
5850 5851 5851 5850 5850 5851 5852 5850 5852 5852 5852 5851 5850 5850 5849 5848 5848 5847 5847 5846 5845 5844 5843 5842 5842 5841 5840 5839 5838 5838 5837 5836 5836 5835 5835 5834 5834 5833 5832 5831 5831 5830 5830 5829 5829 5828 5827 5827 5826
5846 5847 5848 5848 5847 5848 5848 5847 5849 5849 5849 5848 5848 5847 5847 5846 5846 5845 5844 5844 5843 5842 5841 5841 5840 5839 5838 5837 5836 5836 5835 5835 5834 5834 5833 5833 5832 5831 5831 5830 5829 5828 5828 5828 5827 5826 5826 5825 5824
5842 5842 5843 5844 5843 5844 5844 5845 5845 5846 5846 5845 5845 5844 5844 5844 5843 5842 5842 5841 5841 5840 5839 5839 5838 5837 5836 5835 5834 5834 5833 5833 5832 5832 5831 5831 5830 5830 5829 5828 5827 5827 5826 5826 5825 5825 5824 5823 5822
5838 5839 5839 5839 5839 5839 5840 5841 5843 5843 5843 5842 5842 5841 5841 5841 5840 5840 5839 5839 5838 5837 5837 5836 5835 5835 5834 5833 5832 5832 5831 5831 5831 5830 5830 5829 5829 5828 5827 5826 5826 5825 5825 5824 5824 5823 5822 5821 5821
5834 5834 5834 5834 5835 5836 5836 5840 5839 5839 5839 5839 5838 5838 5838 5837 5837 5836 5836 5836 5835 5835 5834 5833 5832 5832 5831 5830 5830 5829 5829 5829 5828 5828 5828 5827 5827 5826 5825 5825 5824 5823 5823 5822 5821 5821 5820 5819 5819
5828 5828 5829 5830 5831 5831 5832 5837 5835 5835 5835 5835 5835 5834 5834 5834 5833 5833 5833 5833 5832 5832 5831 5830 5830 5829 5828 5827 5827 5827 5826 5826 5826 5826 5825 5825 5824 5824 5823 5823 5822 5821 5821 5820 5819 5819 5818 5817 5816